Regional Weather Roundup
Issued by NWS Jackson, KY

Home | Current Version | Previous Version | Graphics & Text | Print | Product List | Glossary On
Versions: 1 2 3 4 5 6 7 8 9 10 11 12 13 14 15 16 17 18 19 20 21 22 23 24 25 26 27 28 29 30 31 32 33 34 35 36 37 38 39 40 41 42 43 44 45 46 47 48 49 50
000
ASUS43 KJKL 281310
RWRJKL

EAST KENTUCKY HOURLY WEATHER ROUNDUP
NATIONAL WEATHER SERVICE JACKSON KY
800 AM EST FRI NOV 28 2014

NOTE: "FAIR" INDICATES FEW OR NO CLOUDS BELOW 12,000 FEET WITH
NO SIGNIFICANT WEATHER AND/OR OBSTRUCTIONS TO VISIBILITY.

* THESE REPORTS ARE NOT UNDER NWS QUALITY CONTROL AND MAY NOT
  REPORT WEATHER SUCH AS PRECIPITATION AND FOG.

KYZ079-080-083-085-087-088-110-112-115-119-120-281400
...EASTERN KENTUCKY...

CITY           SKY/WX    TMP DP  RH WIND       PRES   REMARKS
JACKSON        CLOUDY    26  15  63 VRB5      30.39R WCI  20
LONDON         MOCLDY    26  17  68 CALM      30.40F
SOMERSET*      CLOUDY    25  18  74 CALM      30.45R
MONTICELLO*    MOCLDY    27  21  77 CALM      30.45F
MIDDLESBORO*   CLOUDY    27  18  67 CALM      30.41
HARLAN APT*    CLOUDY    27  18  69 W6        30.38S WCI  20
HAZARD APT*    CLOUDY    27  18  69 W5        30.40  WCI  21
BLACK MTN*       N/A     16  16 100 VRB2        N/A
PIKEVILLE APT* CLOUDY    27  18  69 W5        30.37R WCI  21
BIG SANDY*     CLOUDY    28  19  68 NW3       30.39R
MOREHEAD APT*  MOSUNNY   25  19  80 CALM      30.43R
$$

KYZ035-036-041-042-044-050-067-078-099-281400
...CENTRAL KENTUCKY...

CITY           SKY/WX    TMP DP  RH WIND       PRES   REMARKS
MT STERLING*   CLOUDY    27  21  80 CALM      30.43R
FLEMING/MASON* MOCLDY    25  21  86 CALM      30.42S
DANVILLE*      CLOUDY    27  21  80 CALM      30.43R
RICHMOND*      CLOUDY    27  19  74 W3        30.41S
LEXINGTON      CLOUDY    25  20  81 SW3       30.41R
FRANKFORT      CLOUDY    26  18  71 SW3       30.41R
$$

KYZ091>093-OHZ055-061-077-WVZ005-015-034-035-042-281400
...SOUTHERN OHIO/WEST VIRGINIA...

CITY           SKY/WX    TMP DP  RH WIND       PRES   REMARKS
COVINGTON      CLOUDY    27  18  69 W6        30.39S WCI  20
COLUMBUS       MOCLDY    21  16  81 W5        30.38R WCI  15
DAYTON         MOCLDY    23  17  78 SW3       30.37F
WILMINGTON     CLOUDY    23  15  71 CALM      30.38S
HUNTINGTON     CLOUDY    28  20  71 NW3       30.40R
CHARLESTON     CLOUDY    28  16  60 VRB5      30.37S WCI  23
PINEVILLE*     MOCLDY    23  23 100 MISG      30.38R
BECKLEY        CLOUDY    22  17  81 N7        30.26R WCI  13
BLUEFIELD      MOCLDY    23  14  68 NW9       30.26R WCI  13
$$

VAZ002-007-008-TNZ017-027-036-066-071-281400
...SOUTHWEST VIRGINIA/EAST TENNESSEE...

CITY           SKY/WX    TMP DP  RH WIND       PRES   REMARKS
WISE*          CLOUDY    25  16  68 W5        30.30R WCI  19
JONESVILLE*    CLOUDY    28  19  69 W5        30.40S WCI  23
ABINGDON*      MOCLDY    27  17  65 N5        30.32S WCI  22
BRISTOL        PTCLDY    26  18  71 W5        30.37R WCI  20
KNOXVILLE      PTCLDY    26  20  77 NW6       30.44R WCI  19
OAK RIDGE      PTCLDY    26  21  81 CALM      30.44R
CROSSVILLE     CLEAR     22  16  78 N3        30.38R
NASHVILLE      PTCLDY    23  21  92 S3        30.44F
$$

...KEY TO REMARKS...
VSB - VISIBILITY IN MILES
WCI - WIND CHILL INDEX
HX  - HEAT INDEX

$$


USA.gov is the U.S. government's official web portal to all federal, state and local government web resources and services.